User: anonymous   Login
Location: Springfield
(37.2150°N, 93.2980°W)
Time: 02:31:21
(UTC-05:00)
Language:

Iridium 62 - Orbit

View from above orbital plane
View from above orbital plane
View from above satellite
View from above satellite

Ground track
Ground track

The orbit data is extracted from the following two-line orbital elements,

1 25285U 98021A   17296.79702603 +.00000164 +00000-0 +51428-4 0  9996
2 25285 086.3992 170.1877 0001953 080.1595 279.9821 14.34219758023465
Epoch (UTC): 23 October 2017 19:07:43
Eccentricity: 0.0001953
inclination: 86.3992°
perigee height: 776 km
apogee height: 779 km
right ascension of ascending node: 170.1877°
argument of perigee: 80.1595°
revolutions per day: 14.34219758
mean anomaly at epoch: 279.9821°
orbit number at epoch: 2346

The dashed part of the orbit path shows where the satellite is in the earth's shadow,  

DLR